Malmstrom AFB, MT

9:56 AM MDT on July 24, 2017 (GMT -0600)
Malmstrom AFB

Weather History for KGFA - February, 2014

Change the Weather History Date:

Monday, February 24, 2014

  Actual Average (KGTF) Record (KGTF)
Temperature  
Mean Temperature 2 °F -  
Max Temperature 5 °F 40 °F 68 °F (1995)
Min Temperature 0 °F 18 °F -22 °F (1922)
Degree Days  
Heating Degree Days 62    
Moisture  
Dew Point -4 °F    
Average Humidity 73    
Maximum Humidity 85    
Minimum Humidity 63    
Precipitation  
Precipitation 0.02 in - - ()
Snow  
Snow 0.00 in - - ()
Snow Depth 5.00 in    
Sea Level Pressure  
Sea Level Pressure 30.54 in    
Wind  
Wind Speed 6 mph (NNE)    
Max Wind Speed 13 mph    
Max Gust Speed -    
Visibility 7 miles    
Events Snow    
Averages and records for this station are not official NWS values.
T = Trace of Precipitation, MM = Missing Value Source: NWS Daily Summary

Daily Weather History Graph

Daily Weather History Graph

Search for Another Location

Airport or City:

Trip Planner

Search our weather history database for the weather conditions in past years. The results will help you decide how hot, cold, wet, or windy it might be!

Date:

Astronomy

Feb. 24, 2014 Rise Set
Actual Time 7:14 AM MST 6:02 PM MST
Civil Twilight 6:43 AM MST 6:33 PM MST
Nautical Twilight 6:07 AM MST 7:09 PM MST
Astronomical Twilight 5:32 AM MST 7:44 PM MST
Moon 3:29 AM MST 12:54 PM MST
Length of Visible Light 11h 50m
Length of Day
10h 48m
Waning Crescent, 27% of the Moon is Illuminated
Feb 24
Waning Crescent
Mar 1
New
Mar 8
First Quarter
Mar 16
Full
Mar 23
Last Quarter

Hourly Weather History & Observations

Time (MST) Temp. Windchill Dew Point Humidity Pressure Visibility Wind Dir Wind Speed Gust Speed Precip Events Conditions
12:56 AM 5.0 °F -6.9 °F -0.0 °F 80% 30.46 in 1.5 mi NNW 6.9 mph - 0.01 in Snow Light Snow
1:41 AM 3.2 °F -11.3 °F -0.4 °F 85% 30.13 in 1.0 mi NNW 9.2 mph - 0.00 in Snow Light Snow
1:56 AM 3.9 °F -13.0 °F -0.9 °F 80% 30.49 in 1.0 mi NNW 12.7 mph - 0.00 in Snow Light Snow
2:08 AM 3.2 °F -13.1 °F -0.4 °F 85% 30.14 in 1.0 mi NNW 11.5 mph - 0.00 in Snow Light Snow
2:56 AM 3.0 °F -13.3 °F -2.0 °F 80% 30.50 in 1.2 mi North 11.5 mph - 0.01 in Snow Light Snow
3:56 AM 1.9 °F -13.8 °F -4.0 °F 76% 30.53 in 1.2 mi NNW 10.4 mph - 0.00 in Snow Light Snow
4:56 AM 1.0 °F -14.0 °F -5.1 °F 75% 30.57 in 1.5 mi North 9.2 mph - 0.00 in Snow Light Snow
5:56 AM 1.0 °F -10.3 °F -5.1 °F 75% 30.61 in 2.5 mi NNW 5.8 mph - 0.00 in Snow Light Snow
6:06 AM 1.4 °F -11.3 °F -5.8 °F 72% 30.25 in 2.5 mi NNW 6.9 mph - 0.00 in Snow Light Snow
6:18 AM 1.4 °F -9.9 °F -5.8 °F 72% 30.25 in 3.0 mi NNW 5.8 mph - 0.00 in Snow Light Snow
6:56 AM 1.0 °F -12.9 °F -5.1 °F 75% 30.63 in 4.0 mi NNW 8.1 mph - 0.00 in Snow Light Snow
7:56 AM -0.0 °F -13.0 °F -6.0 °F 76% 30.65 in 10.0 mi North 6.9 mph - 0.00 in   Overcast
8:56 AM -0.0 °F - -6.0 °F 76% 30.67 in 10.0 mi Calm Calm - 0.00 in   Scattered Clouds
9:56 AM -0.0 °F - -6.0 °F 76% 30.68 in 10.0 mi Calm Calm - N/A   Clear
10:56 AM 1.0 °F -6.7 °F -5.1 °F 75% 30.67 in 10.0 mi East 3.5 mph - N/A   Clear
11:56 AM 1.0 °F -6.7 °F -4.0 °F 79% 30.67 in 10.0 mi ESE 3.5 mph - N/A   Clear
12:56 PM 1.9 °F - -5.1 °F 72% 30.65 in 10.0 mi Calm Calm - N/A   Clear
1:56 PM 3.0 °F -4.4 °F -4.0 °F 73% 30.63 in 10.0 mi ESE 3.5 mph - N/A   Clear
2:56 PM 5.0 °F -4.1 °F -4.0 °F 66% 30.62 in 10.0 mi East 4.6 mph - N/A   Clear
3:56 PM 5.0 °F -2.1 °F -5.1 °F 63% 30.61 in 10.0 mi ENE 3.5 mph - N/A   Overcast
4:56 PM 5.0 °F -2.1 °F -4.0 °F 66% 30.60 in 10.0 mi NE 3.5 mph - N/A   Overcast
5:56 PM 5.0 °F -2.1 °F -5.1 °F 63% 30.59 in 10.0 mi NNE 3.5 mph - N/A   Overcast
6:56 PM 5.0 °F -2.1 °F -5.1 °F 63% 30.58 in 10.0 mi NE 3.5 mph - N/A   Overcast
7:56 PM 5.0 °F -2.1 °F -4.0 °F 66% 30.56 in 10.0 mi NE 3.5 mph - N/A   Overcast
8:56 PM 5.0 °F - -2.9 °F 70% 30.56 in 10.0 mi Calm Calm - N/A   Overcast
9:56 PM 5.0 °F -2.1 °F -2.9 °F 70% 30.56 in 10.0 mi NE 3.5 mph - N/A   Overcast
10:56 PM 5.0 °F - -2.9 °F 70% 30.58 in 10.0 mi Calm Calm - N/A   Overcast
11:56 PM 3.9 °F - -2.9 °F 73% 30.60 in 10.0 mi Calm Calm - N/A   Mostly Cloudy